When you browse on this site, cookies collect data to enhance your experience and personalize the content and advertising you see.
Visit our Privacy Policy to learn more. By continuing to use the site, you agree to this use of cookies and data.
  • In Lithuania
  • List of Countries
  • For 7 days
  • Water Temperature
  • Weather Map
  • Weather Widgets
  • user-avatar
    Login

    Hourly Weather Palmyra

    Today, 27 May, Wednesday

    Time Temperature Precipitation Wind Pressure Humidity
    00:00 +27°C° 0 mm 5 mps 724 mmHg 22%
    01:00 +26°C° 0 mm 5 mps 723 mmHg 23%
    02:00 +26°C° 0 mm 5 mps 723 mmHg 24%
    03:00 +25°C° 0 mm 4 mps 723 mmHg 24%
    04:00 +23°C° 0 mm 4 mps 723 mmHg 25%
    05:00 +23°C° 0 mm 4 mps 724 mmHg 25%
    06:00 +24°C° 0 mm 3 mps 724 mmHg 25%
    07:00 +26°C° 0 mm 3 mps 724 mmHg 22%
    08:00 +28°C° 0 mm 3 mps 724 mmHg 19%
    09:00 +30°C° 0 mm 3 mps 724 mmHg 16%
    10:00 +32°C° 0 mm 2 mps 724 mmHg 15%
    11:00 +35°C° 0 mm 2 mps 724 mmHg 13%
    12:00 +37°C° 0 mm 2 mps 724 mmHg 11%
    13:00 +38°C° 0 mm 3 mps 723 mmHg 10%
    14:00 +39°C° 0 mm 3 mps 722 mmHg 9%
    15:00 +41°C° 0 mm 4 mps 722 mmHg 8%
    16:00 +41°C° 0 mm 4 mps 721 mmHg 9%
    17:00 +40°C° 0 mm 4 mps 721 mmHg 10%
    18:00 +40°C° 0 mm 5 mps 721 mmHg 11%
    19:00 +37°C° 0.1 mm 5 mps 721 mmHg 14%
    20:00 +35°C° 0.1 mm 5 mps 721 mmHg 18%
    21:00 +33°C° 0.1 mm 4 mps 721 mmHg 21%
    22:00 +32°C° 0 mm 5 mps 721 mmHg 22%
    23:00 +30°C° 0 mm 5 mps 722 mmHg 24%

    Tomorrow, 28 May, Thursday

    Time Temperature Precipitation Wind Pressure Humidity
    00:00 +28°C° 0 mm 5 mps 722 mmHg 25%
    01:00 +27°C° 0 mm 5 mps 721 mmHg 28%
    02:00 +26°C° 0 mm 5 mps 721 mmHg 30%
    03:00 +25°C° 0 mm 5 mps 721 mmHg 33%
    04:00 +25°C° 0 mm 5 mps 721 mmHg 34%
    05:00 +23°C° 0 mm 6 mps 722 mmHg 35%
    06:00 +22°C° 0 mm 6 mps 722 mmHg 37%
    07:00 +24°C° 0 mm 6 mps 722 mmHg 33%
    08:00 +26°C° 0 mm 6 mps 722 mmHg 29%
    09:00 +28°C° 0 mm 6 mps 722 mmHg 25%
    10:00 +29°C° 0 mm 5 mps 722 mmHg 23%
    11:00 +32°C° 0 mm 5 mps 722 mmHg 21%
    12:00 +33°C° 0 mm 5 mps 722 mmHg 18%
    13:00 +34°C° 0 mm 6 mps 722 mmHg 18%
    14:00 +34°C° 0 mm 7 mps 722 mmHg 18%
    15:00 +35°C° 0 mm 8 mps 721 mmHg 19%
    16:00 +34°C° 0 mm 8 mps 721 mmHg 20%
    17:00 +33°C° 0 mm 7 mps 721 mmHg 21%
    18:00 +32°C° 0 mm 7 mps 721 mmHg 22%
    19:00 +29°C° 0 mm 8 mps 721 mmHg 26%
    20:00 +27°C° 0 mm 8 mps 721 mmHg 29%
    21:00 +24°C° 0 mm 9 mps 722 mmHg 32%
    22:00 +23°C° 0 mm 8 mps 722 mmHg 35%
    23:00 +22°C° 0 mm 8 mps 722 mmHg 38%

    Day after tomorrow, 29 May, Friday

    Time Temperature Precipitation Wind Pressure Humidity
    00:00 +21°C° 0 mm 7 mps 722 mmHg 41%
    01:00 +20°C° 0 mm 8 mps 722 mmHg 46%
    02:00 +18°C° 0 mm 8 mps 721 mmHg 52%
    03:00 +17°C° 0 mm 8 mps 721 mmHg 58%
    04:00 +17°C° 0 mm 7 mps 722 mmHg 60%
    05:00 +16°C° 0 mm 7 mps 722 mmHg 63%
    06:00 +16°C° 0 mm 7 mps 722 mmHg 65%
    07:00 +18°C° 0 mm 7 mps 722 mmHg 56%
    08:00 +20°C° 0 mm 7 mps 723 mmHg 47%
    09:00 +21°C° 0 mm 8 mps 723 mmHg 37%
    10:00 +23°C° 0 mm 7 mps 723 mmHg 32%
    11:00 +24°C° 0 mm 7 mps 723 mmHg 27%
    12:00 +27°C° 0 mm 6 mps 723 mmHg 22%
    13:00 +28°C° 0 mm 6 mps 723 mmHg 20%
    14:00 +28°C° 0 mm 6 mps 723 mmHg 18%
    15:00 +29°C° 0 mm 5 mps 723 mmHg 16%
    16:00 +28°C° 0 mm 6 mps 723 mmHg 18%
    17:00 +28°C° 0 mm 7 mps 723 mmHg 21%
    18:00 +27°C° 0 mm 8 mps 723 mmHg 23%
    19:00 +24°C° 0 mm 7 mps 723 mmHg 29%
    20:00 +23°C° 0 mm 7 mps 723 mmHg 34%
    21:00 +21°C° 0 mm 6 mps 724 mmHg 39%
    22:00 +21°C° 0 mm 6 mps 724 mmHg 42%
    23:00 +20°C° 0 mm 6 mps 724 mmHg 46%

    30 May, Saturday

    Time Temperature Precipitation Wind Pressure Humidity
    00:00 +19°C° 0 mm 6 mps 724 mmHg 50%
    01:00 +19°C° 0 mm 5 mps 724 mmHg 54%
    02:00 +17°C° 0 mm 5 mps 724 mmHg 58%
    03:00 +16°C° 0 mm 5 mps 724 mmHg 63%
    04:00 +16°C° 0 mm 5 mps 724 mmHg 66%
    05:00 +16°C° 0 mm 5 mps 724 mmHg 69%
    06:00 +16°C° 0 mm 5 mps 725 mmHg 72%
    07:00 +17°C° 0 mm 5 mps 725 mmHg 63%
    08:00 +20°C° 0 mm 5 mps 725 mmHg 53%
    09:00 +21°C° 0 mm 5 mps 725 mmHg 44%
    10:00 +23°C° 0 mm 4 mps 725 mmHg 36%
    11:00 +26°C° 0 mm 4 mps 725 mmHg 28%
    12:00 +27°C° 0 mm 3 mps 725 mmHg 21%
    13:00 +28°C° 0 mm 3 mps 725 mmHg 19%
    14:00 +29°C° 0 mm 3 mps 725 mmHg 17%
    15:00 +30°C° 0 mm 3 mps 724 mmHg 15%
    16:00 +30°C° 0 mm 3 mps 724 mmHg 14%
    17:00 +30°C° 0 mm 3 mps 724 mmHg 14%
    18:00 +30°C° 0 mm 3 mps 724 mmHg 13%
    19:00 +28°C° 0 mm 3 mps 724 mmHg 15%
    20:00 +27°C° 0 mm 2 mps 724 mmHg 16%
    21:00 +26°C° 0 mm 1 mps 724 mmHg 18%
    22:00 +25°C° 0 mm 2 mps 725 mmHg 23%
    23:00 +24°C° 0 mm 3 mps 725 mmHg 28%

    31 May, Sunday

    Time Temperature Precipitation Wind Pressure Humidity
    00:00 +22°C° 0 mm 4 mps 725 mmHg 34%
    01:00 +21°C° 0 mm 4 mps 725 mmHg 36%
    02:00 +20°C° 0 mm 3 mps 724 mmHg 38%
    03:00 +19°C° 0 mm 3 mps 724 mmHg 40%
    04:00 +19°C° 0 mm 3 mps 724 mmHg 40%
    05:00 +19°C° 0 mm 2 mps 725 mmHg 41%
    06:00 +19°C° 0 mm 2 mps 725 mmHg 41%
    07:00 +21°C° 0 mm 1 mps 725 mmHg 37%
    08:00 +23°C° 0 mm 1 mps 725 mmHg 33%
    09:00 +24°C° 0 mm 1 mps 725 mmHg 29%
    10:00 +26°C° 0 mm 1 mps 725 mmHg 26%
    11:00 +28°C° 0 mm 1 mps 725 mmHg 22%
    12:00 +30°C° 0 mm 1 mps 725 mmHg 19%
    13:00 +31°C° 0 mm 1 mps 724 mmHg 17%
    14:00 +32°C° 0 mm 1 mps 724 mmHg 15%
    15:00 +33°C° 0 mm 1 mps 723 mmHg 13%
    16:00 +35°C° 0 mm 2 mps 723 mmHg 13%
    17:00 +35°C° 0 mm 2 mps 722 mmHg 12%
    18:00 +35°C° 0 mm 3 mps 722 mmHg 12%
    19:00 +34°C° 0 mm 3 mps 722 mmHg 14%
    20:00 +32°C° 0 mm 4 mps 722 mmHg 15%
    21:00 +30°C° 0 mm 4 mps 722 mmHg 17%
    22:00 +29°C° 0 mm 3 mps 722 mmHg 18%
    23:00 +28°C° 0 mm 3 mps 722 mmHg 20%

    1 June, Monday

    Time Temperature Precipitation Wind Pressure Humidity
    00:00 +27°C° 0 mm 2 mps 722 mmHg 22%
    01:00 +26°C° 0 mm 2 mps 722 mmHg 24%
    02:00 +25°C° 0 mm 2 mps 722 mmHg 26%
    03:00 +24°C° 0 mm 2 mps 721 mmHg 28%
    04:00 +24°C° 0 mm 1 mps 721 mmHg 29%
    05:00 +23°C° 0 mm 1 mps 722 mmHg 30%
    06:00 +23°C° 0 mm 1 mps 722 mmHg 30%
    07:00 +25°C° 0 mm 1 mps 722 mmHg 26%
    08:00 +27°C° 0 mm 1 mps 722 mmHg 22%
    09:00 +29°C° 0 mm 1 mps 722 mmHg 18%
    10:00 +31°C° 0 mm 1 mps 722 mmHg 16%
    11:00 +32°C° 0 mm 2 mps 722 mmHg 14%
    12:00 +35°C° 0 mm 2 mps 722 mmHg 12%
    13:00 +36°C° 0 mm 3 mps 721 mmHg 11%
    14:00 +37°C° 0 mm 4 mps 721 mmHg 11%
    15:00 +39°C° 0 mm 5 mps 720 mmHg 10%
    16:00 +38°C° 0 mm 6 mps 720 mmHg 11%
    17:00 +38°C° 0 mm 7 mps 720 mmHg 11%
    18:00 +36°C° 0 mm 7 mps 720 mmHg 11%
    19:00 +35°C° 0 mm 7 mps 720 mmHg 13%
    20:00 +33°C° 0 mm 7 mps 720 mmHg 15%
    21:00 +30°C° 0 mm 7 mps 721 mmHg 17%
    22:00 +29°C° 0 mm 6 mps 721 mmHg 19%
    23:00 +28°C° 0 mm 5 mps 721 mmHg 20%
    Show more